Flippin, AR

1:19 PM CDT on June 26, 2017 (GMT -0500)
Marion County Regional

Weather History for KFLP - March, 2014

Change the Weather History Date:

Monday, March 3, 2014

  Actual Average Record
Temperature  
Mean Temperature 16 °F -  
Max Temperature 26 °F 53 °F 69 °F (2011)
Min Temperature 6 °F 33 °F 6 °F (2014)
Degree Days  
Heating Degree Days 49    
Moisture  
Dew Point 0 °F    
Average Humidity 53    
Maximum Humidity 73    
Minimum Humidity 34    
Precipitation  
Precipitation 0.00 in - - ()
Sea Level Pressure  
Sea Level Pressure 30.38 in    
Wind  
Wind Speed 1 mph (NNW)    
Max Wind Speed 9 mph    
Max Gust Speed -    
Visibility 8 miles    
Events      
Averages and records for this station are not official NWS values.
T = Trace of Precipitation, MM = Missing Value Source: NWS Daily Summary

Daily Weather History Graph

Daily Weather History Graph

Search for Another Location

Airport or City:

Trip Planner

Search our weather history database for the weather conditions in past years. The results will help you decide how hot, cold, wet, or windy it might be!

Date:

Astronomy

Mar. 03, 2014 Rise Set
Actual Time 6:38 AM CST 6:07 PM CST
Civil Twilight 6:12 AM CST 6:32 PM CST
Nautical Twilight 5:42 AM CST 7:02 PM CST
Astronomical Twilight 5:12 AM CST 7:32 PM CST
Moon 7:52 AM CST (3/3) 9:04 PM CST (3/3)
Length of Visible Light 12h 20m
Length of Day
11h 29m
Waxing Crescent, 8% of the Moon is Illuminated
Mar 3
Waxing Crescent
Mar 8
First Quarter
Mar 16
Full
Mar 23
Last Quarter
Mar 30
New

Hourly Weather History & Observations

Time (CST) Temp. Windchill Dew Point Humidity Pressure Visibility Wind Dir Wind Speed Gust Speed Precip Events Conditions
12:15 AM 12.2 °F - 1.4 °F 62% 30.29 in 10.0 mi Calm Calm - N/A   Overcast
12:35 AM 12.2 °F - 1.4 °F 62% 30.31 in 2.5 mi Calm Calm - N/A   Overcast
12:55 AM 10.4 °F - 3.2 °F 73% 30.33 in 1.0 mi Calm Calm - N/A   Overcast
1:15 AM 10.4 °F - 3.2 °F 73% 30.33 in 1.0 mi Calm Calm - N/A   Overcast
1:35 AM 10.4 °F - 1.4 °F 67% 30.33 in 1.0 mi Calm Calm - N/A   Overcast
1:55 AM 10.4 °F - 1.4 °F 67% 30.33 in 0.5 mi Calm Calm - N/A   Overcast
2:15 AM 8.6 °F - 1.4 °F 73% 30.33 in 0.8 mi Calm Calm - N/A   Overcast
2:35 AM 8.6 °F - -0.4 °F 67% 30.34 in 1.0 mi Calm Calm - N/A   Overcast
2:55 AM 8.6 °F - -0.4 °F 67% 30.34 in 0.8 mi Calm Calm - N/A   Overcast
3:15 AM 8.6 °F - 1.4 °F 73% 30.35 in 1.0 mi Calm Calm - N/A   Overcast
3:35 AM 8.6 °F - 1.4 °F 73% 30.36 in 1.2 mi Calm Calm - N/A   Overcast
3:55 AM 8.6 °F - -0.4 °F 67% 30.37 in 2.5 mi Calm Calm - N/A   Overcast
4:15 AM 8.6 °F - -2.2 °F 62% 30.38 in 4.0 mi Calm Calm - N/A   Mostly Cloudy
4:35 AM 8.6 °F - -2.2 °F 62% 30.39 in 8.0 mi Calm Calm - N/A   Scattered Clouds
4:55 AM 8.6 °F - -0.4 °F 67% 30.40 in 4.0 mi Calm Calm - N/A   Mostly Cloudy
5:15 AM 8.6 °F - -2.2 °F 62% 30.40 in 2.5 mi Calm Calm - N/A   Overcast
5:35 AM 8.6 °F - -0.4 °F 67% 30.40 in 3.0 mi Calm Calm - N/A   Mostly Cloudy
5:55 AM 6.8 °F - -2.2 °F 67% 30.41 in 5.0 mi Calm Calm - N/A   Scattered Clouds
6:15 AM 6.8 °F - -0.4 °F 72% 30.41 in 4.0 mi Calm Calm - N/A   Partly Cloudy
6:35 AM 6.8 °F - -0.4 °F 72% 30.42 in 1.8 mi Calm Calm - N/A   Mostly Cloudy
6:55 AM 6.8 °F - -0.4 °F 72% 30.41 in 1.2 mi Calm Calm - N/A   Overcast
7:15 AM 6.8 °F - -0.4 °F 72% 30.41 in 1.8 mi Calm Calm - N/A   Scattered Clouds
7:35 AM 6.8 °F - -2.2 °F 67% 30.42 in 10.0 mi Calm Calm - N/A   Mostly Cloudy
7:55 AM 8.6 °F - -2.2 °F 62% 30.43 in 6.0 mi Calm Calm - N/A   Overcast
8:15 AM 6.8 °F - -5.8 °F 56% 30.43 in 10.0 mi Calm Calm - N/A   Overcast
8:35 AM 8.6 °F - -5.8 °F 52% 30.44 in 10.0 mi Calm Calm - N/A   Mostly Cloudy
8:55 AM 8.6 °F - -5.8 °F 52% 30.44 in 10.0 mi Calm Calm - N/A   Mostly Cloudy
9:15 AM 10.4 °F - -5.8 °F 48% 30.43 in 10.0 mi Calm Calm - N/A   Partly Cloudy
9:35 AM 10.4 °F - -4.0 °F 52% 30.44 in 10.0 mi Calm Calm - N/A   Clear
9:55 AM 12.2 °F - -2.2 °F 53% 30.44 in 10.0 mi Calm Calm - N/A   Clear
10:15 AM 12.2 °F - -2.2 °F 53% 30.44 in 10.0 mi Calm Calm - N/A   Clear
10:35 AM 14.0 °F - -2.2 °F 49% 30.44 in 10.0 mi Calm Calm - N/A   Clear
10:55 AM 15.8 °F - -0.4 °F 49% 30.45 in 10.0 mi Calm Calm - N/A   Clear
11:15 AM 15.8 °F - -2.2 °F 45% 30.45 in 10.0 mi Calm Calm - N/A   Clear
11:35 AM 15.8 °F - -0.4 °F 49% 30.45 in 10.0 mi Calm Calm - N/A   Clear
11:55 AM 15.8 °F - -0.4 °F 49% 30.46 in 10.0 mi Calm Calm - N/A   Clear
12:15 PM 17.6 °F - -0.4 °F 45% 30.45 in 10.0 mi Calm Calm - N/A   Clear
12:35 PM 19.4 °F - -0.4 °F 42% 30.42 in 10.0 mi Calm Calm - N/A   Clear
12:55 PM 19.4 °F - -0.4 °F 42% 30.41 in 10.0 mi Calm Calm - N/A   Clear
1:15 PM 19.4 °F - -0.4 °F 42% 30.42 in 10.0 mi Calm Calm - N/A   Clear
1:35 PM 21.2 °F - -0.4 °F 39% 30.42 in 10.0 mi Calm Calm - N/A   Clear
1:55 PM 21.2 °F - -0.4 °F 39% 30.41 in 10.0 mi Calm Calm - N/A   Clear
2:15 PM 23.0 °F 13.1 °F -0.4 °F 36% 30.39 in 10.0 mi North 9.2 mph - N/A   Clear
2:35 PM 24.8 °F 19.1 °F 1.4 °F 36% 30.39 in 10.0 mi NE 4.6 mph - N/A   Clear
2:55 PM 24.8 °F 16.1 °F 1.4 °F 36% 30.39 in 10.0 mi North 8.1 mph - N/A   Clear
3:15 PM 24.8 °F 15.3 °F 1.4 °F 36% 30.37 in 10.0 mi North 9.2 mph - N/A   Clear
3:35 PM 24.8 °F 17.9 °F 1.4 °F 36% 30.36 in 10.0 mi NE 5.8 mph - N/A   Clear
3:55 PM 26.6 °F 19.1 °F 3.2 °F 37% 30.34 in 10.0 mi North 6.9 mph - N/A   Clear
4:15 PM 26.6 °F 22.6 °F 3.2 °F 37% 30.34 in 10.0 mi NNW 3.5 mph - N/A   Clear
4:35 PM 26.6 °F 20.0 °F 1.4 °F 34% 30.35 in 10.0 mi NNW 5.8 mph - N/A   Clear
4:55 PM 26.6 °F - 1.4 °F 34% 30.36 in 10.0 mi Calm Calm - N/A   Clear
5:15 PM 26.6 °F - 3.2 °F 37% 30.35 in 10.0 mi Calm Calm - N/A   Clear
5:35 PM 26.6 °F - 1.4 °F 34% 30.35 in 10.0 mi Calm Calm - N/A   Clear
5:55 PM 26.6 °F 22.6 °F 1.4 °F 34% 30.34 in 10.0 mi ENE 3.5 mph - N/A   Clear
6:15 PM 24.8 °F - -0.4 °F 34% 30.35 in 10.0 mi Calm Calm - N/A   Clear
6:35 PM 24.8 °F - -0.4 °F 34% 30.35 in 10.0 mi Calm Calm - N/A   Clear
6:55 PM 23.0 °F - -0.4 °F 36% 30.35 in 10.0 mi Calm Calm - N/A   Clear
7:15 PM 21.2 °F - 1.4 °F 42% 30.35 in 10.0 mi Calm Calm - N/A   Clear
7:35 PM 21.2 °F - 3.2 °F 46% 30.35 in 10.0 mi Calm Calm - N/A   Clear
7:55 PM 21.2 °F - 3.2 °F 46% 30.35 in 10.0 mi Calm Calm - N/A   Clear
8:15 PM 21.2 °F - -0.4 °F 39% 30.35 in 10.0 mi Calm Calm - N/A   Clear
8:35 PM 17.6 °F - 3.2 °F 53% 30.35 in 10.0 mi Calm Calm - N/A   Clear
8:55 PM 17.6 °F - 3.2 °F 53% 30.34 in 10.0 mi Calm Calm - N/A   Clear
9:15 PM 17.6 °F - 3.2 °F 53% 30.34 in 10.0 mi Calm Calm - N/A   Clear
9:35 PM 15.8 °F - 3.2 °F 58% 30.34 in 10.0 mi Calm Calm - N/A   Clear
9:55 PM 15.8 °F - 3.2 °F 58% 30.33 in 10.0 mi Calm Calm - N/A   Clear
10:15 PM 15.8 °F 8.6 °F 3.2 °F 58% 30.33 in 10.0 mi West 4.6 mph - N/A   Clear
10:35 PM 15.8 °F 10.2 °F 3.2 °F 58% 30.33 in 10.0 mi WSW 3.5 mph - N/A   Clear
10:55 PM 15.8 °F 10.2 °F 3.2 °F 58% 30.34 in 10.0 mi WSW 3.5 mph - N/A   Clear
11:15 PM 17.6 °F - 3.2 °F 53% 30.33 in 10.0 mi Calm Calm - N/A   Clear
11:35 PM 15.8 °F - 3.2 °F 58% 30.31 in 10.0 mi Calm Calm - N/A   Clear
11:55 PM 15.8 °F - 3.2 °F 58% 30.32 in 10.0 mi Calm Calm - N/A   Clear